Location: Taukkyan
(23.1052°N, 94.0030°E)
Time: 11:52:56
(UTC+00:00)

H-2A ROCKET BODY - Pass Details

Date: 06 July 2020
Orbit: 241 x 15319 km, 28.6° (Epoch: 13 August)

Event Time Altitude Azimuth Distance (km) Brightness Sun altitude
Rises 13:55:40 0° 289° (WNW) 2,440 6.1 -17.2°
Reaches altitude 10° 13:57:00 10° 295° (WNW) 1,867 5.3 -17.4°
Maximum altitude 14:00:48 59° 16° (NNE) 1,199 3.0 -18.1°
Enters shadow 14:15:20 11° 94° (E) 6,701 6.3 -20.8°
